Location: Ferchesar
(52.6477°N, 12.4298°E)
Time: 14:54:53
(UTC+02:00)

BUGSAT 1 - Visible Passes

Search period start: 23 October 2021 00:00
Search period end: 01 November 2021 23:00
Orbit: 556 x 602 km, 98.1° (Epoch: 22 October)

Date Brightness Start Highest point End Pass type
(mag) Time Alt. Az. Time Alt. Az. Time Alt. Az.
23 Oct ? 05:29:33 10° NE 05:33:00 27° E 05:36:26 10° SSE visible
23 Oct ? 07:04:40 10° N 07:08:22 36° WNW 07:12:03 10° SW visible
24 Oct ? 05:34:16 10° NE 05:37:49 29° E 05:41:22 10° SSE visible
24 Oct ? 07:09:30 10° N 07:13:07 33° WNW 07:16:44 10° SW visible
25 Oct ? 05:38:59 10° NNE 05:42:38 33° E 05:46:16 10° SSE visible
25 Oct ? 07:14:21 10° N 07:17:53 30° WNW 07:21:25 10° SW visible
26 Oct ? 05:43:42 10° NNE 05:47:25 36° E 05:51:10 10° SSE visible
26 Oct ? 07:19:11 10° N 07:22:37 28° WNW 07:26:05 10° WSW visible
27 Oct ? 05:48:25 10° NNE 05:52:14 40° E 05:56:02 10° S visible
28 Oct ? 05:53:09 10° NNE 05:57:01 44° E 06:00:54 10° S visible
28 Oct ? 18:25:07 10° WSW 18:27:21 14° W 18:29:37 10° NW visible
29 Oct ? 05:57:53 10° NNE 06:01:49 49° E 06:05:45 10° S visible
29 Oct ? 18:30:16 10° WSW 18:32:12 13° W 18:34:07 10° WNW visible
30 Oct ? 06:02:37 10° NNE 06:06:35 55° E 06:10:34 10° S visible
30 Oct ? 18:35:30 10° WSW 18:37:01 12° W 18:38:31 10° WNW visible
31 Oct ? 05:07:22 10° NNE 05:11:22 61° ESE 05:15:23 10° S visible
31 Oct ? 17:40:57 10° W 17:41:50 11° W 17:42:43 10° WNW visible
01 Nov ? 05:12:07 10° NNE 05:16:09 68° ESE 05:20:12 10° S visible
